Zurück zum Katalog

STARLINK-34677

AktivKommunikationVLEO
NORAD 65031·PAYLOAD·🇺🇸 United States

Gestartet Jul 30, 2025 von Cape Canaveral Space Force Station

Loading…

Nächste Überflüge (nächste 24 Stunden)

TLE

AktuellSource: CelesTrak SupGP

Epoche: Sep 14, 2026, 22:48 UTC

1 65031C 25161S   26257.95048611  .00003836  00000+0  11340-3 0  2574
2 65031  53.1564 133.9511 0001258  80.3643 250.8354 15.34372154    17

Verfolge STARLINK-34677 in Echtzeit mit AllMySat

Download on the App Store